Location: Shenandoah County Park
(38.9356°N, 78.4524°W)
Time: 05:46:07
(UTC-04:00)

Explorer 11/Cluster Stage 4 - Pass Details

Date: 27 February 2024
Orbit: 465 x 1220 km, 28.8° (Epoch: 12 April)

Event Time Altitude Azimuth Distance (km) Brightness Sun altitude
Rises 04:16:34 0° 263° (W) 4,060 - -30.4°
Reaches altitude 10° 04:20:01 10° 252° (WSW) 3,021 - -29.8°
Maximum altitude 04:26:01 27° 199° (SSW) 1,885 - -28.6°
Exits shadow 04:27:30 25° 179° (S) 1,921 8.4 -28.3°
Drops below altitude 10° 04:31:17 10° 144° (SE) 2,616 9.5 -27.6°
Sets 04:34:04 0° 132° (SE) 3,426 10.3 -27.1°
